Alsace — PB4786 — position and weather

sailwx.info

Track history (hours):
 
Tides and Currents Weather Stations Pressure Air Temp Water Temp Dewpoint Dewpoint Depression Visibility Wind Speed Wind Dir Waves Ship Positions

Alsace

Last reported at 2014-Oct-25 18:25 UTC. Time now 2014-Oct-25 23:37 UTC.
Position N 49°23' E 008°30'.

Length 178 m.

Type: Ship. MMSI: 244660556.

Date/timePositionNaut miles runAvg speedWind from/ knotsBaromVisibWave heightAir tempDewpointWater temp
2014-Oct-25 18:25N 49°23' E 008°30'7 7.6
2014-Oct-25 17:33N 49°16' E 008°27'10 9.8
2014-Oct-25 16:33N 49°07' E 008°22'1010.3
2014-Oct-25 15:33N 48°58' E 008°14'21 6.9
2014-Oct-25 12:31N 48°42' E 007°55'64 3.4
2014-Oct-24 17:27N 47°40' E 007°31'2 1.8
2014-Oct-24 16:33N 47°38' E 007°32'4 1.7
2014-Oct-24 14:21N 47°35' E 007°35'0 0.0
2014-Oct-24 13:30N 47°35' E 007°35'0 0.1
2014-Oct-24 12:20N 47°35' E 007°35'0 0.4
2014-Oct-24 11:33N 47°35' E 007°35'0 0.1
2014-Oct-24 10:32N 47°35' E 007°35'0 0.1
2014-Oct-24 08:15N 47°35' E 007°35'0 0.0
2014-Oct-24 07:33N 47°35' E 007°35'0 0.0
2014-Oct-24 06:33N 47°35' E 007°35'0 0.0
2014-Oct-24 05:33N 47°35' E 007°35'0 0.0
2014-Oct-24 04:26N 47°35' E 007°35'0 0.0
2014-Oct-24 03:30N 47°35' E 007°35'0 0.0
2014-Oct-24 02:30N 47°35' E 007°35'0 0.0
2014-Oct-24 01:33N 47°35' E 007°35'0 0.0
2014-Oct-24 00:32N 47°35' E 007°35'0 0.0
2014-Oct-23 23:21N 47°35' E 007°35'4 4.8
2014-Oct-23 22:29N 47°39' E 007°32'64 2.4
2014-Oct-22 19:31N 48°41' E 007°55'3 2.8
2014-Oct-22 18:33N 48°43' E 007°57'7 6.6
2014-Oct-22 17:32N 48°48' E 008°05'3 3.4
2014-Oct-22 16:33N 48°51' E 008°07'4 4.4
2014-Oct-22 15:32N 48°55' E 008°09'4 4.0
2014-Oct-22 14:33N 48°58' E 008°13'4 4.3
2014-Oct-22 13:33N 49°01' E 008°18'3 2.9
2014-Oct-22 12:33N 49°04' E 008°18'0 0.4
2014-Oct-22 11:34N 49°03' E 008°18'0 0.0
2014-Oct-22 10:34N 49°03' E 008°18'3 3.0
2014-Oct-22 09:33N 49°05' E 008°21'5 4.8
2014-Oct-22 08:33N 49°10' E 008°22'5 4.8
2014-Oct-22 07:33N 49°15' E 008°24'4 3.8
2014-Oct-22 06:23N 49°19' E 008°28'4 4.3
2014-Oct-22 05:33N 49°22' E 008°30'110 4.2
2014-Oct-21 03:17N 50°55' E 006°58'8 4.5
2014-Oct-21 01:27N 51°03' E 006°55'3 3.4
2014-Oct-21 00:26N 51°06' E 006°53'4 4.4
2014-Oct-20 23:33N 51°10' E 006°51'3 2.5
2014-Oct-20 22:33N 51°11' E 006°47'3 3.5
2014-Oct-20 21:33N 51°14' E 006°44'2 1.8
2014-Oct-20 20:33N 51°15' E 006°43'5 4.1
2014-Oct-20 19:27N 51°20' E 006°43'2 2.7
2014-Oct-20 18:31N 51°22' E 006°41'31 3.8
2014-Oct-20 10:20N 51°49' E 006°16'7 5.7
2014-Oct-20 09:07N 51°51' E 006°05'8 4.8
2014-Oct-20 07:22N 51°51' E 005°52'1 1.6
2014-Oct-20 06:32N 51°52' E 005°50'0 0.0
2014-Oct-20 05:25N 51°52' E 005°50'0 0.0
2014-Oct-20 04:27N 51°52' E 005°50'1 0.1
2014-Oct-19 21:29N 51°52' E 005°49'5 5.8
2014-Oct-19 20:33N 51°54' E 005°40'7 6.9
2014-Oct-19 19:33N 51°53' E 005°29'7 6.8
2014-Oct-19 18:34N 51°48' E 005°22'7 6.6
2014-Oct-19 17:33N 51°49' E 005°11'7 7.4
2014-Oct-19 16:33N 51°49' E 004°59'8 7.7
2014-Oct-19 15:33N 51°48' E 004°47'16 6.9
2014-Oct-19 13:16N 51°41' E 004°24'6 8.4
2014-Oct-19 12:32N 51°38' E 004°15'8 7.7
2014-Oct-19 11:33N 51°31' E 004°13'5 4.4
2014-Oct-19 10:28N 51°26' E 004°14'7 7.5
2014-Oct-19 09:33N 51°20' E 004°18'1 0.7
2014-Oct-19 08:32N 51°20' E 004°20'1 0.4
2014-Oct-19 07:18N 51°20' E 004°20'0 0.0
2014-Oct-19 06:33N 51°20' E 004°20'1 0.9
2014-Oct-19 05:22N 51°19' E 004°19'0 0.0
2014-Oct-19 04:23N 51°19' E 004°19'0 0.0
2014-Oct-19 03:27N 51°19' E 004°19'0 0.0
2014-Oct-19 02:33N 51°19' E 004°19'0 0.0
2014-Oct-19 01:33N 51°19' E 004°19'0 0.0
2014-Oct-19 00:32N 51°19' E 004°19'0 0.0
2014-Oct-18 23:32N 51°19' E 004°19'0 0.0
2014-Oct-18 22:31N 51°19' E 004°19'0 0.0
2014-Oct-18 21:33N 51°19' E 004°19'0 0.0
2014-Oct-18 20:22N 51°19' E 004°19'0 0.0
2014-Oct-18 19:12N 51°19' E 004°19'0 0.0
2014-Oct-18 18:33N 51°19' E 004°19'0 0.0
2014-Oct-18 17:09N 51°19' E 004°19'0 0.0
2014-Oct-18 16:33N 51°19' E 004°19'0 0.0
2014-Oct-18 15:33N 51°19' E 004°19'0 0.0
2014-Oct-18 14:31N 51°19' E 004°19'0 0.0
2014-Oct-18 13:28N 51°19' E 004°19'2 1.8
2014-Oct-18 12:33N 51°21' E 004°18'1 0.8
2014-Oct-18 11:33N 51°21' E 004°16'0 0.0
2014-Oct-18 10:33N 51°21' E 004°16'0 0.0
2014-Oct-18 09:33N 51°21' E 004°16'1 0.6
2014-Oct-18 08:33N 51°20' E 004°17'0 0.0
2014-Oct-18 07:27N 51°20' E 004°17'0 0.0
2014-Oct-18 06:32N 51°20' E 004°17'0 0.0
2014-Oct-18 05:33N 51°20' E 004°17'3 2.4
2014-Oct-18 04:30N 51°18' E 004°16'0 0.0
2014-Oct-18 03:32N 51°18' E 004°16'0 0.3
2014-Oct-18 02:32N 51°18' E 004°16'0 0.0
2014-Oct-18 01:33N 51°18' E 004°16'0 0.0
2014-Oct-18 00:30N 51°18' E 004°16'3 3.7
2014-Oct-17 23:33N 51°21' E 004°16'1 1.2
2014-Oct-17 22:32N 51°21' E 004°18'0 0.4
2014-Oct-17 21:31N 51°21' E 004°18'1 1.4
2014-Oct-17 20:31N 51°22' E 004°17'5 4.8
2014-Oct-17 19:29N 51°27' E 004°14'6 7.0
2014-Oct-17 18:34N 51°33' E 004°14'8 6.2
2014-Oct-17 17:19N 51°40' E 004°21'5 4.7
2014-Oct-17 16:14N 51°42' E 004°29'6 8.9
2014-Oct-17 15:34N 51°43' E 004°38'8 8.0
2014-Oct-17 14:33N 51°48' E 004°48'9 8.5
2014-Oct-17 13:33N 51°49' E 005°02'9 9.5
2014-Oct-17 12:34N 51°49' E 005°17'8 8.1
2014-Oct-17 11:34N 51°53' E 005°28'54 3.5
2014-Oct-16 20:03N 51°22' E 006°39'5 8.1
2014-Oct-16 19:29N 51°18' E 006°43'5 5.6
2014-Oct-16 18:34N 51°13' E 006°44'6 5.8
2014-Oct-16 17:33N 51°09' E 006°51'124 6.9
2014-Oct-15 23:31N 49°23' E 008°30'7 7.0
2014-Oct-15 22:33N 49°16' E 008°27'9 8.8
2014-Oct-15 21:33N 49°08' E 008°22'10 9.8
2014-Oct-15 20:33N 48°59' E 008°16'  
Track history (hours):
 
Tides and Currents Weather Stations Pressure Air Temp Water Temp Dewpoint Dewpoint Depression Visibility Wind Speed Wind Dir Waves Ship Positions

Alsace

Last reported at 2014-Oct-25 18:25 UTC. Time now 2014-Oct-25 23:37 UTC.
Position N 49°23' E 008°30'.

Length 178 m.

Type: Ship. MMSI: 244660556.

Date/timePositionNaut miles runAvg speedWind from/ knotsBaromVisibWave heightAir tempDewpointWater temp
2014-Oct-25 18:25N 49°23' E 008°30'7 7.6
2014-Oct-25 17:33N 49°16' E 008°27'10 9.8
2014-Oct-25 16:33N 49°07' E 008°22'1010.3
2014-Oct-25 15:33N 48°58' E 008°14'21 6.9
2014-Oct-25 12:31N 48°42' E 007°55'64 3.4
2014-Oct-24 17:27N 47°40' E 007°31'2 1.8
2014-Oct-24 16:33N 47°38' E 007°32'4 1.7
2014-Oct-24 14:21N 47°35' E 007°35'0 0.0
2014-Oct-24 13:30N 47°35' E 007°35'0 0.1
2014-Oct-24 12:20N 47°35' E 007°35'0 0.4
2014-Oct-24 11:33N 47°35' E 007°35'0 0.1
2014-Oct-24 10:32N 47°35' E 007°35'0 0.1
2014-Oct-24 08:15N 47°35' E 007°35'0 0.0
2014-Oct-24 07:33N 47°35' E 007°35'0 0.0
2014-Oct-24 06:33N 47°35' E 007°35'0 0.0
2014-Oct-24 05:33N 47°35' E 007°35'0 0.0
2014-Oct-24 04:26N 47°35' E 007°35'0 0.0
2014-Oct-24 03:30N 47°35' E 007°35'0 0.0
2014-Oct-24 02:30N 47°35' E 007°35'0 0.0
2014-Oct-24 01:33N 47°35' E 007°35'0 0.0
2014-Oct-24 00:32N 47°35' E 007°35'0 0.0
2014-Oct-23 23:21N 47°35' E 007°35'4 4.8
2014-Oct-23 22:29N 47°39' E 007°32'64 2.4
2014-Oct-22 19:31N 48°41' E 007°55'3 2.8
2014-Oct-22 18:33N 48°43' E 007°57'7 6.6
2014-Oct-22 17:32N 48°48' E 008°05'3 3.4
2014-Oct-22 16:33N 48°51' E 008°07'4 4.4
2014-Oct-22 15:32N 48°55' E 008°09'4 4.0
2014-Oct-22 14:33N 48°58' E 008°13'4 4.3
2014-Oct-22 13:33N 49°01' E 008°18'3 2.9
2014-Oct-22 12:33N 49°04' E 008°18'0 0.4
2014-Oct-22 11:34N 49°03' E 008°18'0 0.0
2014-Oct-22 10:34N 49°03' E 008°18'3 3.0
2014-Oct-22 09:33N 49°05' E 008°21'5 4.8
2014-Oct-22 08:33N 49°10' E 008°22'5 4.8
2014-Oct-22 07:33N 49°15' E 008°24'4 3.8
2014-Oct-22 06:23N 49°19' E 008°28'4 4.3
2014-Oct-22 05:33N 49°22' E 008°30'110 4.2
2014-Oct-21 03:17N 50°55' E 006°58'8 4.5
2014-Oct-21 01:27N 51°03' E 006°55'3 3.4
2014-Oct-21 00:26N 51°06' E 006°53'4 4.4
2014-Oct-20 23:33N 51°10' E 006°51'3 2.5
2014-Oct-20 22:33N 51°11' E 006°47'3 3.5
2014-Oct-20 21:33N 51°14' E 006°44'2 1.8
2014-Oct-20 20:33N 51°15' E 006°43'5 4.1
2014-Oct-20 19:27N 51°20' E 006°43'2 2.7
2014-Oct-20 18:31N 51°22' E 006°41'31 3.8
2014-Oct-20 10:20N 51°49' E 006°16'7 5.7
2014-Oct-20 09:07N 51°51' E 006°05'8 4.8
2014-Oct-20 07:22N 51°51' E 005°52'1 1.6
2014-Oct-20 06:32N 51°52' E 005°50'0 0.0
2014-Oct-20 05:25N 51°52' E 005°50'0 0.0
2014-Oct-20 04:27N 51°52' E 005°50'1 0.1
2014-Oct-19 21:29N 51°52' E 005°49'5 5.8
2014-Oct-19 20:33N 51°54' E 005°40'7 6.9
2014-Oct-19 19:33N 51°53' E 005°29'7 6.8
2014-Oct-19 18:34N 51°48' E 005°22'7 6.6
2014-Oct-19 17:33N 51°49' E 005°11'7 7.4
2014-Oct-19 16:33N 51°49' E 004°59'8 7.7
2014-Oct-19 15:33N 51°48' E 004°47'16 6.9
2014-Oct-19 13:16N 51°41' E 004°24'6 8.4
2014-Oct-19 12:32N 51°38' E 004°15'8 7.7
2014-Oct-19 11:33N 51°31' E 004°13'5 4.4
2014-Oct-19 10:28N 51°26' E 004°14'7 7.5
2014-Oct-19 09:33N 51°20' E 004°18'1 0.7
2014-Oct-19 08:32N 51°20' E 004°20'1 0.4
2014-Oct-19 07:18N 51°20' E 004°20'0 0.0
2014-Oct-19 06:33N 51°20' E 004°20'1 0.9
2014-Oct-19 05:22N 51°19' E 004°19'0 0.0
2014-Oct-19 04:23N 51°19' E 004°19'0 0.0
2014-Oct-19 03:27N 51°19' E 004°19'0 0.0
2014-Oct-19 02:33N 51°19' E 004°19'0 0.0
2014-Oct-19 01:33N 51°19' E 004°19'0 0.0
2014-Oct-19 00:32N 51°19' E 004°19'0 0.0
2014-Oct-18 23:32N 51°19' E 004°19'0 0.0
2014-Oct-18 22:31N 51°19' E 004°19'0 0.0
2014-Oct-18 21:33N 51°19' E 004°19'0 0.0
2014-Oct-18 20:22N 51°19' E 004°19'0 0.0
2014-Oct-18 19:12N 51°19' E 004°19'0 0.0
2014-Oct-18 18:33N 51°19' E 004°19'0 0.0
2014-Oct-18 17:09N 51°19' E 004°19'0 0.0
2014-Oct-18 16:33N 51°19' E 004°19'0 0.0
2014-Oct-18 15:33N 51°19' E 004°19'0 0.0
2014-Oct-18 14:31N 51°19' E 004°19'0 0.0
2014-Oct-18 13:28N 51°19' E 004°19'2 1.8
2014-Oct-18 12:33N 51°21' E 004°18'1 0.8
2014-Oct-18 11:33N 51°21' E 004°16'0 0.0
2014-Oct-18 10:33N 51°21' E 004°16'0 0.0
2014-Oct-18 09:33N 51°21' E 004°16'1 0.6
2014-Oct-18 08:33N 51°20' E 004°17'0 0.0
2014-Oct-18 07:27N 51°20' E 004°17'0 0.0
2014-Oct-18 06:32N 51°20' E 004°17'0 0.0
2014-Oct-18 05:33N 51°20' E 004°17'3 2.4
2014-Oct-18 04:30N 51°18' E 004°16'0 0.0
2014-Oct-18 03:32N 51°18' E 004°16'0 0.3
2014-Oct-18 02:32N 51°18' E 004°16'0 0.0
2014-Oct-18 01:33N 51°18' E 004°16'0 0.0
2014-Oct-18 00:30N 51°18' E 004°16'3 3.7
2014-Oct-17 23:33N 51°21' E 004°16'1 1.2
2014-Oct-17 22:32N 51°21' E 004°18'0 0.4
2014-Oct-17 21:31N 51°21' E 004°18'1 1.4
2014-Oct-17 20:31N 51°22' E 004°17'5 4.8
2014-Oct-17 19:29N 51°27' E 004°14'6 7.0
2014-Oct-17 18:34N 51°33' E 004°14'8 6.2
2014-Oct-17 17:19N 51°40' E 004°21'5 4.7
2014-Oct-17 16:14N 51°42' E 004°29'6 8.9
2014-Oct-17 15:34N 51°43' E 004°38'8 8.0
2014-Oct-17 14:33N 51°48' E 004°48'9 8.5
2014-Oct-17 13:33N 51°49' E 005°02'9 9.5
2014-Oct-17 12:34N 51°49' E 005°17'8 8.1
2014-Oct-17 11:34N 51°53' E 005°28'54 3.5
2014-Oct-16 20:03N 51°22' E 006°39'5 8.1
2014-Oct-16 19:29N 51°18' E 006°43'5 5.6
2014-Oct-16 18:34N 51°13' E 006°44'6 5.8
2014-Oct-16 17:33N 51°09' E 006°51'124 6.9
2014-Oct-15 23:31N 49°23' E 008°30'7 7.0
2014-Oct-15 22:33N 49°16' E 008°27'9 8.8
2014-Oct-15 21:33N 49°08' E 008°22'10 9.8
2014-Oct-15 20:33N 48°59' E 008°16'  

Dump ship's entire track history